• Processing (Info)

  • MPEC 2019-U208 : 2019 UH8

    The following Minor Planet Electronic Circular may be linked-to from your own Web pages, but must not otherwise be redistributed electronically.

    A form allowing access to any MPEC is at the bottom of this page.


    Read MPEC 2019-U207 Read MPEC 2019-U209


    M.P.E.C. 2019-U208                             Issued 2019 October 27, 07:08 UT
    
         The Minor Planet Electronic Circulars contain information on unusual
             minor planets and routine data on comets.  They are published
        on behalf of Division F of the International Astronomical Union by the
              Minor Planet Center, Smithsonian Astrophysical Observatory,
                              Cambridge, MA 02138, U.S.A.
    
                 Prepared using the Tamkin Foundation Computer Network
    
                                  MPC@CFA.HARVARD.EDU
                URL https://www.minorplanetcenter.net/    ISSN 1523-6714
    
                                    2019 UH8                                 
    
    
    Observations:
         K19U08H* C2019 10 25.15581 23 33 39.98 +12 45 25.5          20.2 GVEU208G96
         K19U08H  C2019 10 25.16097 23 33 43.99 +12 45 53.7          20.6 GVEU208G96
         K19U08H  C2019 10 25.17127 23 33 51.90 +12 46 49.0          20.7 GVEU208G96
         K19U08H  C2019 10 25.19449 23 34 09.83 +12 48 53.6          20.1 GVEU208G96
         K19U08H  C2019 10 25.19490 23 34 10.15 +12 48 56.2          20.1 GVEU208G96
         K19U08H  C2019 10 25.19531 23 34 10.46 +12 48 58.2          20.3 GVEU208G96
         K19U08H  C2019 10 25.19571 23 34 10.78 +12 49 00.2          20.4 GVEU208G96
         K19U08H  C2019 10 25.29897 23 35 29.94 +12 58 03.8          20.4 GVEU208I52
         K19U08H  C2019 10 25.30022 23 35 30.88 +12 58 10.4          20.5 GVEU208I52
         K19U08H  C2019 10 25.30147 23 35 31.84 +12 58 17.0          20.3 GVEU208I52
         K19U08H  C2019 10 25.30272 23 35 32.82 +12 58 23.2          19.9 GVEU208I52
         K19U08H  C2019 10 25.39199623 36 44.195+13 06 29.52         20.2 GVEU208F51
         K19U08H  C2019 10 25.40290023 36 52.364+13 07 25.12         21.0 GVEU208F51
         K19U08H  C2019 10 25.41377623 37 00.563+13 08 20.82         20.3 GVEU208F51
         K19U08H KC2019 10 25.78299223 41 49.24 +13 38 35.3          20.1 GVEU208K63
         K19U08H KC2019 10 25.78607123 41 51.46 +13 38 50.1          20.1 GVEU208K63
         K19U08H KC2019 10 25.79069023 41 54.80 +13 39 13.1          20.4 GVEU208K63
         K19U08H pC2019 10 25.80281823 42 03.42 +13 40 11.6          20.7 GVEU208L01
         K19U08H KC2019 10 25.80495123 42 04.93 +13 40 21.7          20.8 GVEU208L01
         K19U08H KC2019 10 25.80735423 42 06.63 +13 40 33.3          20.5 GVEU208L01
         K19U08H HC2019 10 25.89569 23 43 10.49 +13 47 38.7                VEU208204
         K19U08H HC2019 10 25.90860 23 43 19.75 +13 48 40.1          20.5 GVEU208204
         K19U08H  C2019 10 26.09050 23 45 37.52 +14 03 09.0          20.3 GVEU208I52
         K19U08H  C2019 10 26.09148 23 45 38.21 +14 03 13.0          20.9 GVEU208I52
         K19U08H  C2019 10 26.09245 23 45 38.87 +14 03 18.2          20.6 GVEU208I52
         K19U08H  C2019 10 26.09342 23 45 39.52 +14 03 22.5          20.1 GVEU208I52
         K19U08H KC2019 10 26.17833 23 46 37.79 +14 09 59.5                oEU208711
         K19U08H KC2019 10 26.18108 23 46 39.79 +14 10 12.4                oEU208711
         K19U08H KC2019 10 26.18384 23 46 41.63 +14 10 25.3                oEU208711
         K19U08H KC2019 10 26.24742 23 47 24.76 +14 15 00.1          20.9 GVEU208734
         K19U08H KC2019 10 26.25327 23 47 28.72 +14 15 26.1          20.2 GVEU208734
         K19U08H KC2019 10 26.25620 23 47 30.76 +14 15 38.6          20.8 GVEU208734
         K19U08H KC2019 10 26.26205 23 47 34.75 +14 16 04.8          20.5 GVEU208734
         K19U08H KC2019 10 27.13926 23 57 33.96 +15 17 43.5                oEU208711
         K19U08H IC2019 10 27.14212 23 57 35.71 +15 17 55.3                oEU208711
         K19U08H KC2019 10 27.14507 23 57 37.49 +15 18 06.9                oEU208711
    
    Observer details:
    204 Schiaparelli Observatory.  Observer L. Buzzi.  0.84-m f/3.5 reflector + CCD.
    711 McDonald Observatory, Fort Davis.  Observers J. G. Ries, A. Assaf.  
        Measurer J. G. Ries.  2.1-m reflector + CCD + focal reducer.
    734 Farpoint Observatory, Eskridge.  Observers G. Hug, D. Cromer, D. Goodin.  
        Measurer D. Cromer.  0.69-m reflector + CCD.
    F51 Pan-STARRS 1, Haleakala.  Observers J. Bulger, K. Chambers, T. Lowe, E. 
       Magnier, A. Schultz, M. Willman.  Measurers S. Chastel, M. Huber, Y. 
       Ramanjooloo, R. Wainscoat, R. Weryk.  1.8-m Ritchey-Chretien + CCD.
    G96 Mt. Lemmon Survey.  Observer G. J. Leonard.  Measurers E. J. Christensen, 
       G. A. Farneth, D. C. Fuls, A. R. Gibbs, A. D. Grauer, H. Groeller, R. A. 
       Kowalski, S. M. Larson, G. J. Leonard, T. A. Pruyne, D. Rankin, R. L. Seaman,
        F. C. Shelly, K. W. Wierzchos.  1.5-m reflector + 10K CCD.
    I52 Steward Observatory, Mt. Lemmon Station.  Observers R. A. Kowalski, K. W. 
       Wierzchos, D. C. Fuls.  Measurers E. J. Christensen, G. A. Farneth, D. C. 
       Fuls, A. R. Gibbs, A. D. Grauer, H. Groeller, R. A. Kowalski, S. M. Larson, 
       G. J. Leonard, T. A. Pruyne, D. Rankin, R. L. Seaman, F. C. Shelly, K. W. 
       Wierzchos.  1.0-m reflector + CCD.
    K63 G. Pascoli Observatory, Castelvecchio Pascoli.  Observer R. Bacci.  0.41-m 
       f/3.2 Newtonian reflector + CCD.
    L01 Visnjan Observatory, Tican.  Observer K. Korlevic.  1.0-m f/2.9 reflector + 
       CCD.
    
    Orbital elements:
    2019 UH8                                                 Earth MOID = 0.0047 AU
    Epoch 2019 Apr. 27.0 TT = JDT 2458600.5                 Bell
    M 322.76478              (2000.0)            P               Q
    n   0.26548567     Peri.  323.78491     +0.91238751     +0.40902620
    a   2.3975923      Node    12.10124     -0.35574519     +0.81134550
    e   0.6205650      Incl.    4.29583     -0.20247071     +0.41763147
    P   3.71           H   24.3           G   0.15           U   7
    Residuals in seconds of arc
    191025 G96  0.2-  0.3-    191025 F51  0.1-  0.0     191026 I52  0.7-  0.1-
    191025 G96  0.1+  0.0     191025 F51  0.2+  0.2+    191026 I52  1.1-  0.3-
    191025 G96  0.6-  0.2-    191025 K63  0.2-  0.5-    191026 711  0.7-  0.3-
    191025 G96  0.0   0.1-    191025 K63  0.4-  0.8-    191026 711  1.0+  0.0
    191025 G96  0.1+  0.3+    191025 K63  0.6-  0.5-    191026 711  0.2+  0.3+
    191025 G96  0.0   0.1+    191025 L01  0.9+  0.0     191026 734  1.1+  0.8+
    191025 G96  0.2+  0.1-    191025 L01  0.4+  0.3-    191026 734  0.1+  0.7+
    191025 I52  0.0   0.1-    191025 L01  0.2-  0.4-    191026 734  0.5+  0.2+
    191025 I52  0.3-  0.0     191025 204  0.2-  0.3+    191026 734  0.0   0.4+
    191025 I52  0.2-  0.1+    191025 204  0.2+  0.3+    191027 711  0.6-  0.9-
    191025 I52  0.1+  0.2-    191026 I52  0.4-  0.1-    191027 711  0.7-  0.4-
    191025 F51  0.3+  0.2+    191026 I52  0.4-  0.7-    191027 711  1.3-  0.4-
    
    Ephemeris:
    2019 UH8                 a,e,i = 2.40, 0.62, 4                   q = 0.9097
    Date    TT    R. A. (2000) Decl.     Delta      r    Elong.  Phase     V
    2019 09 27    15 57 10.4 -27 42 30   0.1735  0.9276    59.8   110.9    24.6
    ...
    2019 10 12    18 40 42.7 -21 27 41   0.07585 0.9897    81.4    94.3    22.0
    ...
    2019 10 20    22 00 40.6 +01 13 52   0.06832 1.0373   125.6    51.3    20.4
    ...
    2019 10 26    23 44 27.6 +13 56 36   0.09797 1.0779   147.1    30.0    20.7
    2019 10 27    23 56 01.3 +15 08 53   0.1045  1.0851   149.1    28.1    20.8
    2019 10 28    00 06 22.3 +16 10 33   0.1114  1.0923   150.6    26.5    20.9
    ...
    2019 11 03    00 50 22.0 +19 55 54   0.1573  1.1373   155.6    21.1    21.6
    ...
    2019 11 11    01 22 51.1 +21 55 00   0.2267  1.2010   156.1    19.5    22.5
    ...
    2019 11 26    01 55 39.6 +23 00 10   0.3776  1.3278   150.1    21.7    23.9
    
    A. U. Tomatic                (C) Copyright 2019 MPC           M.P.E.C. 2019-U208
    


    Read MPEC 2019-U207 Read MPEC 2019-U209


    MPEC number:

    Enter an MPEC number in one of the following forms:

    • 1997-B01 (the full form)
    • J97B01 (the packed version of the full form)
    • B01 (the abbreviated form)